Weather History for Hayward, CA

Change the Weather History Date:

Wednesday, October 16, 2013

  Actual Average Record
Temperature  
Mean Temperature 59 °F 63 °F  
Max Temperature 80 °F 72 °F 85 °F (1999)
Min Temperature 37 °F 54 °F 37 °F (2013)
Degree Days  
Heating Degree Days 6    
Month to date heating degree days 21  
Since 1 July heating degree days 128  
Cooling Degree Days 0    
Month to date cooling degree days 7  
Year to date cooling degree days 250  
Growing Degree Days 16 (Base 50)    
Moisture  
Dew Point 38 °F    
Average Humidity 39    
Maximum Humidity 57    
Minimum Humidity 21    
Precipitation  
Precipitation 0.00 in - 0.01 in (2007)
Month to date precipitation 0.00  
Year to date precipitation 1.71  
Since 1 July precipitation 0.22  
Sea Level Pressure  
Sea Level Pressure 30.06 in    
Wind  
Wind Speed 4 mph (NW)    
Max Wind Speed 10 mph    
Max Gust Speed 13 mph    
Visibility 10 miles    
Events      
T = Trace of Precipitation, MM = Missing Value Source: NWS Daily Summary

Daily Weather History Graph

Daily Weather History Graph

Search for Another Location

Airport:

Trip Planner

Search our weather history database for the weather conditions in past years. The results will help you decide how hot, cold, wet, or windy it might be!

Date:

Astronomy

Oct. 16, 2013 Rise Set
Actual Time 7:18 AM PDT 6:29 PM PDT
Civil Twilight 6:51 AM PDT 6:55 PM PDT
Nautical Twilight 6:21 AM PDT 7:26 PM PDT
Astronomical Twilight 5:50 AM PDT 7:56 PM PDT
Moon 5:10 PM PDT (10/16) 4:54 AM PDT (10/16)
Length of Visible Light 12h 04m
Length of Day
11h 11m
Waxing Gibbous, 94% of the Moon is Illuminated
Oct 16
Waxing Gibbous
Oct 18
Full
Oct 26
Last Quarter
Nov 3
New
Nov 9
First Quarter

Hourly Weather History & Observations

Time (PDT) Temp. Dew Point Humidity Pressure Visibility Wind Dir Wind Speed Gust Speed Precip Events Conditions
12:54 AM 57.0 °F 42.1 °F 57% 30.03 in 10.0 mi Calm Calm - N/A   Clear
1:54 AM 55.0 °F 33.1 °F 43% 30.04 in 10.0 mi East 5.8 mph - N/A   Clear
2:54 AM 53.1 °F 34.0 °F 48% 30.04 in 10.0 mi ENE 3.5 mph - N/A   Clear
3:54 AM 55.0 °F 33.1 °F 43% 30.04 in 10.0 mi ENE 5.8 mph - N/A   Clear
4:54 AM 53.1 °F 34.0 °F 48% 30.05 in 10.0 mi East 3.5 mph - N/A   Clear
5:54 AM 54.0 °F 33.1 °F 45% 30.06 in 10.0 mi Calm Calm - N/A   Clear
6:54 AM 54.0 °F 33.1 °F 45% 30.08 in 10.0 mi Calm Calm - N/A   Clear
7:54 AM 54.0 °F 33.1 °F 45% 30.09 in 10.0 mi Calm Calm - N/A   Clear
8:54 AM 60.1 °F 39.9 °F 47% 30.12 in 10.0 mi SE 4.6 mph - N/A   Clear
9:54 AM 64.0 °F 43.0 °F 46% 30.12 in 10.0 mi Calm Calm - N/A   Clear
10:54 AM 69.1 °F 42.1 °F 38% 30.11 in 10.0 mi WNW 6.9 mph - N/A   Clear
11:54 AM 68.0 °F 46.9 °F 47% 30.07 in - West 5.8 mph - N/A   Unknown
12:37 PM 69.8 °F 44.6 °F 40% 30.07 in 10.0 mi WNW 4.6 mph - N/A   Clear
12:54 PM 70.0 °F 44.1 °F 39% 30.06 in 10.0 mi West 5.8 mph - N/A   Unknown
1:54 PM 73.0 °F 45.0 °F 37% 30.04 in 10.0 mi West 5.8 mph - N/A   Clear
2:54 PM 77.0 °F 42.1 °F 29% 30.03 in 10.0 mi West 6.9 mph - N/A   Unknown
3:54 PM 79.0 °F 36.0 °F 21% 30.02 in 10.0 mi West 10.4 mph - N/A   Clear
4:54 PM 78.1 °F 37.9 °F 24% 30.03 in 10.0 mi WNW 9.2 mph - N/A   Clear
5:54 PM 77.0 °F 36.0 °F 23% 30.02 in 10.0 mi NW 6.9 mph - N/A   Clear
6:54 PM 77.0 °F 36.0 °F 23% 30.02 in 10.0 mi NW 3.5 mph - N/A   Unknown
7:54 PM 77.0 °F 36.0 °F 23% 30.04 in 10.0 mi Calm Calm - N/A   Unknown
8:54 PM - - N/A% 30.05 in 10.0 mi Calm Calm - N/A   Unknown
9:54 PM 75.9 °F 37.9 °F 25% 30.04 in 10.0 mi NE 3.5 mph - N/A   Unknown
10:54 PM 61.0 °F 36.0 °F 39% 30.05 in 10.0 mi Calm Calm - N/A   Unknown
11:54 PM 60.1 °F 36.0 °F 41% 30.08 in 10.0 mi ENE 5.8 mph - N/A   Unknown